Regional Weather Roundup
Issued by NWS Newport/Morehead, NC

Current Version | Previous Version | Text Only | Print | Product List | Glossary On
Versions: 1 2 3 4 5 6 7 8 9 10 11 12 13 14 15 16 17 18 19 20 21 22 23 24 25 26 27 28 29 30 31 32 33 34 35 36 37 38 39 40 41 42 43 44 45 46 47 48 49 50
000 ASUS42 KMHX 270522 RWRMHX WEATHER ROUNDUP FOR EASTERN NORTH CAROLINA NATIONAL WEATHER SERVICE NEWPORT/MOREHEAD CITY NC 1200 AM EST SAT DEC 27 2014 NOTE: "FAIR" INDICATES FEW OR NO CLOUDS BELOW 12,000 FEET WITH NO SIGNIFICANT WEATHER AND/OR OBSTRUCTIONS TO VISIBILITY NCZ015>017-031-032-045>047-102-103-270600- NORTH COAST CITY SKY/WX TMP DP RH WIND PRES REMARKS EDENTON N/A 36 34 93 CALM 30.31S ELIZABETH CITY PTCLDY 41 36 82 CALM 30.30F KITTY HAWK CLEAR 46 44 90 S3 30.29F MANTEO CLEAR 37 36 93 CALM 30.31F $$ NCZ045>047-081-094-103-104-270600- CENTRAL COAST CITY SKY/WX TMP DP RH WIND PRES REMARKS FRISCO CLEAR 38 38 100 NW3 30.31F SWANQUARTER N/A 39 N/A N/A S1 30.27S $$ NCZ095-097-098-100-101-270600- SOUTHERN COAST CITY SKY/WX TMP DP RH WIND PRES REMARKS BEAUFORT CLEAR 38 37 97 CALM 30.32F CEDAR ISLAND N/A 41 N/A N/A SE2 30.36S JACKSONVILLE CLEAR 37 36 96 CALM 30.31F PINEY ISLAND CLEAR 49 41 74 S3 30.31F WILMINGTON CLEAR 39 38 96 CALM 30.31F $$ NCZ011>013-027>030-043-044-078>080-089-090>093-098-270600- COASTAL PLAIN CITY SKY/WX TMP DP RH WIND PRES REMARKS AHOSKIE FAIR 36 34 94 CALM 30.30F CLINTON CLEAR 36 36 100 CALM 30.33S ELIZABETHTOWN CLEAR 36 35 95 CALM 30.32S GOLDSBORO CLEAR 36 36 100 CALM 30.30F GREENVILLE PTCLDY 37 37 100 CALM 30.31F HAVELOCK CLEAR 38 35 89 CALM 30.34S KENANSVILLE CLEAR 33 33 100 CALM 30.33S KINSTON CLEAR 33 32 97 CALM 30.32S NEW BERN PTCLDY 38 34 85 CALM 30.32F RICHLANDS CLEAR 34 30 86 CALM 30.32S ROCKY MOUNT PTCLDY 37 35 92 CALM 30.30F WASHINGTON PTCLDY 36 34 92 CALM 30.31F WHITEVILLE CLEAR 38 37 94 CALM 30.32S $$ AMZ130-135-150-152-154-156-158-170-250-252-270-ANZ085-086-088-633-658-670-270600- MARINE OBSERVATIONS STATION/POSITION TIME TEMP WIND PRES WAVE SWELL AIR SEA DIR/SP/G HT/PER HT/PER (UTC) (F) (DEG/KT/KT) (MB) (FT/S) (FT/S) CHESAPEAKE LIGHT 0500 48 170/ 10/ 10 1026.3 64 E VA BEACH 0500 50 52 180/ 4/ 4 1025.4 2/ 8 2/ 8 DUCK 0500 48 51 210/ 6/ 7 1025.1 2 E DUCK 0500 50 N/A 2/11 2/11 10 NE DUCK 0500 50 N/A 2/13 2/13 OREGON INLET 0500 46 54 130/ 4/ 5 1025.9 13E OREGON INLT 0500 50 N/A 2/ 8 2/12 HATTERAS CG 0500 49 55 CALM 1026.6 DIAMOND BUOY 0500 55 1026.7 2/13 17 S OCRACOKE NOT AVBL CAPE LOOKOUT 0500 53 30/ 1/ 2 1026.3 BEAUFORT LAB 0500 46 55 350/ 2/ 3 1025.5 30 SE NEW RIVER 0500 58 61 110/ 4/ 6 1026.7 2/ 7 2/ 7 5 SE WRIGHTSVLE NOT AVBL 225 S CAPE HAT 0354 67 74 70/ 8/ 12 1026.0 3/12 3/12 41 SE CHARLESTON 0500 63 74 20/ 10/ 14 1025.2 2/ 8 2/ 8 $$

USA.gov is the U.S. government's official web portal to all federal, state and local government web resources and services.